ARG1547 SACO-SABE

Flight info

Callsign ARG1547
Flight time 0h 55m
Altitude 35000
Route UTRAX1G UTRAX UW24 SNT SNT8Q
Aircraft B738/M-SDE2E3FGHIRWXY/LB1

Departure

Time 2026-05-06 00:29
Airport Ingeniero Aeronáutico Ambrosio L.V. Taravella International Airport (SACO)

Arrival

Time 2026-05-06 01:24
Airport Aeroparque Jorge Newbery (SABE)
Time Latitude Longitude Altitude Speed Heading
2026-05-05 23:55 -31.31612 -64.21165 1612 ft 0 kts 270°
2026-05-06 00:21 -31.31612 -64.21164 1584 ft 1 kts 270°
2026-05-06 00:21 -31.31612 -64.21136 1619 ft 4 kts 263°
2026-05-06 00:22 -31.31606 -64.21110 1617 ft 4 kts 228°
2026-05-06 00:22 -31.31589 -64.21102 1619 ft 4 kts 180°
2026-05-06 00:22 -31.31568 -64.21102 1622 ft 0 kts 180°
2026-05-06 00:25 -31.31587 -64.21102 1615 ft 6 kts 180°
2026-05-06 00:25 -31.31642 -64.21102 1619 ft 10 kts 180°
2026-05-06 00:26 -31.31711 -64.21098 1617 ft 10 kts 165°
2026-05-06 00:26 -31.31766 -64.21052 1612 ft 10 kts 143°
2026-05-06 00:26 -31.31830 -64.21029 1616 ft 10 kts 177°
2026-05-06 00:26 -31.31918 -64.21028 1614 ft 14 kts 179°
2026-05-06 00:27 -31.32015 -64.21026 1617 ft 14 kts 179°
2026-05-06 00:27 -31.32110 -64.21025 1620 ft 13 kts 179°
2026-05-06 00:27 -31.32208 -64.21022 1621 ft 15 kts 179°
2026-05-06 00:27 -31.32307 -64.21021 1617 ft 15 kts 179°
2026-05-06 00:28 -31.32419 -64.20977 1612 ft 22 kts 131°
2026-05-06 00:28 -31.32374 -64.20828 1614 ft 23 kts 21°
2026-05-06 00:28 -31.32160 -64.20818 1614 ft 56 kts 359°
2026-05-06 00:28 -31.31524 -64.20827 1619 ft 125 kts 359°
2026-05-06 00:29 -31.30455 -64.20842 1688 ft 174 kts 359°
2026-05-06 00:29 -31.29234 -64.20858 2428 ft 177 kts
2026-05-06 00:29 -31.28031 -64.20733 3337 ft 168 kts 15°
2026-05-06 00:29 -31.26900 -64.20217 3899 ft 183 kts 28°
2026-05-06 00:30 -31.25861 -64.19362 4676 ft 184 kts 42°
2026-05-06 00:30 -31.25000 -64.18259 5441 ft 191 kts 52°
2026-05-06 00:30 -31.24383 -64.16857 6113 ft 197 kts 71°
2026-05-06 00:30 -31.24148 -64.15265 6613 ft 210 kts 84°
2026-05-06 00:31 -31.24114 -64.13442 6766 ft 236 kts 87°
2026-05-06 00:31 -31.24231 -64.11451 7169 ft 249 kts 104°
2026-05-06 00:31 -31.25049 -64.09632 7555 ft 269 kts 129°
2026-05-06 00:31 -31.26167 -64.07812 8050 ft 281 kts 120°
2026-05-06 00:32 -31.27066 -64.05824 9021 ft 272 kts 116°
2026-05-06 00:32 -31.28020 -64.03933 9897 ft 271 kts 128°
2026-05-06 00:32 -31.29371 -64.02297 10249 ft 290 kts 140°
2026-05-06 00:32 -31.30933 -64.00646 10433 ft 315 kts 137°
2026-05-06 00:33 -31.32545 -63.98859 10613 ft 337 kts 137°
2026-05-06 00:33 -31.34291 -63.96958 11035 ft 348 kts 138°
2026-05-06 00:33 -31.36073 -63.95014 11630 ft 354 kts 138°
2026-05-06 00:33 -31.37882 -63.93020 12302 ft 357 kts 138°
2026-05-06 00:34 -31.39689 -63.91012 12985 ft 360 kts 138°
2026-05-06 00:34 -31.41514 -63.88972 13652 ft 365 kts 138°
2026-05-06 00:34 -31.43353 -63.86915 14217 ft 370 kts 139°
2026-05-06 00:34 -31.45232 -63.84839 14772 ft 375 kts 138°
2026-05-06 00:35 -31.47098 -63.82676 15324 ft 380 kts 139°
2026-05-06 00:35 -31.49020 -63.80520 15903 ft 385 kts 140°
2026-05-06 00:35 -31.50949 -63.78377 16479 ft 389 kts 140°
2026-05-06 00:35 -31.52923 -63.76183 17049 ft 394 kts 141°
2026-05-06 00:36 -31.54922 -63.73955 17598 ft 399 kts 141°
2026-05-06 00:36 -31.56794 -63.71860 18141 ft 403 kts 141°
2026-05-06 00:36 -31.58831 -63.69577 18670 ft 407 kts 141°
2026-05-06 00:36 -31.60888 -63.67269 19197 ft 411 kts 141°
2026-05-06 00:37 -31.62958 -63.64944 19751 ft 414 kts 141°
2026-05-06 00:37 -31.65063 -63.62598 20286 ft 417 kts 141°
2026-05-06 00:37 -31.67180 -63.60257 20801 ft 421 kts 141°
2026-05-06 00:37 -31.69278 -63.57944 21297 ft 425 kts 141°
2026-05-06 00:38 -31.71003 -63.56038 21693 ft 428 kts 141°
2026-05-06 00:38 -31.73182 -63.53628 22181 ft 432 kts 141°
2026-05-06 00:38 -31.75376 -63.51197 22670 ft 436 kts 141°
2026-05-06 00:38 -31.77599 -63.48730 23155 ft 440 kts 141°
2026-05-06 00:39 -31.79830 -63.46251 23598 ft 443 kts 141°
2026-05-06 00:39 -31.82081 -63.43748 24007 ft 447 kts 141°
2026-05-06 00:39 -31.84355 -63.41217 24368 ft 451 kts 141°
2026-05-06 00:39 -31.86610 -63.38707 24773 ft 454 kts 141°
2026-05-06 00:40 -31.88907 -63.36126 25168 ft 458 kts 139°
2026-05-06 00:40 -31.90657 -63.33876 25462 ft 464 kts 135°
2026-05-06 00:40 -31.92590 -63.31079 25806 ft 469 kts 132°
2026-05-06 00:40 -31.94405 -63.28300 26148 ft 473 kts 131°
2026-05-06 00:41 -31.96246 -63.25434 26473 ft 476 kts 131°
2026-05-06 00:41 -31.98260 -63.22314 26821 ft 479 kts 132°
2026-05-06 00:41 -32.00303 -63.19187 27200 ft 482 kts 133°
2026-05-06 00:41 -32.02376 -63.16053 27472 ft 487 kts 133°
2026-05-06 00:42 -32.04460 -63.12929 27750 ft 491 kts 133°
2026-05-06 00:42 -32.06581 -63.09765 28158 ft 492 kts 134°
2026-05-06 00:42 -32.08707 -63.06595 28561 ft 493 kts 134°
2026-05-06 00:42 -32.10845 -63.03409 28878 ft 497 kts 134°
2026-05-06 00:43 -32.12998 -63.00198 29144 ft 501 kts 134°
2026-05-06 00:43 -32.15161 -62.96967 29443 ft 504 kts 134°
2026-05-06 00:43 -32.17338 -62.93710 29754 ft 507 kts 134°
2026-05-06 00:43 -32.19530 -62.90426 30054 ft 510 kts 134°
2026-05-06 00:44 -32.21734 -62.87123 30230 ft 515 kts 134°
2026-05-06 00:44 -32.23953 -62.83793 30447 ft 518 kts 134°
2026-05-06 00:44 -32.26184 -62.80439 30700 ft 520 kts 134°
2026-05-06 00:44 -32.28417 -62.77079 30999 ft 520 kts 134°
2026-05-06 00:45 -32.30657 -62.73707 31269 ft 522 kts 134°
2026-05-06 00:45 -32.32905 -62.70319 31540 ft 523 kts 134°
2026-05-06 00:45 -32.35153 -62.66929 31822 ft 524 kts 134°
2026-05-06 00:45 -32.37401 -62.63536 32130 ft 525 kts 134°
2026-05-06 00:46 -32.39657 -62.60130 32359 ft 527 kts 134°
2026-05-06 00:46 -32.41928 -62.56697 32611 ft 529 kts 134°
2026-05-06 00:46 -32.44191 -62.53272 32904 ft 529 kts 134°
2026-05-06 00:46 -32.46457 -62.49838 33215 ft 529 kts 134°
2026-05-06 00:47 -32.48722 -62.46404 33556 ft 528 kts 134°
2026-05-06 00:47 -32.50982 -62.42974 33808 ft 529 kts 134°
2026-05-06 00:47 -32.53250 -62.39530 34014 ft 531 kts 134°
2026-05-06 00:47 -32.55525 -62.36073 34299 ft 531 kts 135°
2026-05-06 00:48 -32.57760 -62.32670 34575 ft 529 kts 135°
2026-05-06 00:48 -32.60025 -62.29219 34882 ft 528 kts 135°
2026-05-06 00:48 -32.62287 -62.25772 34899 ft 532 kts 135°
2026-05-06 00:49 -32.66835 -62.18831 34900 ft 531 kts 135°
2026-05-06 00:49 -32.71229 -62.11861 34900 ft 526 kts 132°
2026-05-06 00:50 -32.75387 -62.04697 34913 ft 527 kts 131°
2026-05-06 00:50 -32.79516 -61.97499 34913 ft 527 kts 131°
2026-05-06 00:51 -32.83670 -61.90320 34906 ft 527 kts 131°
2026-05-06 00:51 -32.87834 -61.83160 34913 ft 526 kts 131°
2026-05-06 00:52 -32.92002 -61.75987 34911 ft 527 kts 131°
2026-05-06 00:52 -32.96162 -61.68808 34907 ft 527 kts 131°
2026-05-06 00:53 -33.00322 -61.61611 34901 ft 526 kts 131°
2026-05-06 00:53 -33.04436 -61.54478 34916 ft 525 kts 131°
2026-05-06 00:54 -33.08568 -61.47303 34907 ft 525 kts 131°
2026-05-06 00:54 -33.12697 -61.40119 34905 ft 525 kts 131°
2026-05-06 00:55 -33.16805 -61.32956 34899 ft 524 kts 131°
2026-05-06 00:55 -33.20914 -61.25779 34904 ft 523 kts 131°
2026-05-06 00:56 -33.25019 -61.18593 34909 ft 523 kts 131°
2026-05-06 00:56 -33.28424 -61.12624 34915 ft 523 kts 130°
2026-05-06 00:57 -33.32450 -61.05522 34711 ft 525 kts 130°
2026-05-06 00:57 -33.34449 -61.01985 34242 ft 525 kts 130°
2026-05-06 00:57 -33.36310 -60.98684 33876 ft 521 kts 130°
2026-05-06 00:57 -33.38194 -60.95337 33415 ft 518 kts 129°
2026-05-06 00:58 -33.39965 -60.92186 33018 ft 514 kts 129°
2026-05-06 00:58 -33.41903 -60.88732 32587 ft 510 kts 129°
2026-05-06 00:58 -33.43830 -60.85296 32168 ft 505 kts 129°
2026-05-06 00:58 -33.45777 -60.81821 31745 ft 501 kts 129°
2026-05-06 00:59 -33.47708 -60.78374 31335 ft 496 kts 129°
2026-05-06 00:59 -33.49625 -60.74948 30921 ft 492 kts 129°
2026-05-06 00:59 -33.51522 -60.71555 30518 ft 487 kts 129°
2026-05-06 00:59 -33.53398 -60.68198 30137 ft 483 kts 128°
2026-05-06 01:00 -33.55231 -60.64914 29689 ft 479 kts 128°
2026-05-06 01:00 -33.56944 -60.61841 29260 ft 475 kts 128°
2026-05-06 01:00 -33.58771 -60.58561 28835 ft 469 kts 128°
2026-05-06 01:00 -33.60572 -60.55324 28409 ft 464 kts 128°
2026-05-06 01:01 -33.62359 -60.52111 27999 ft 459 kts 128°
2026-05-06 01:01 -33.63977 -60.49204 27609 ft 455 kts 128°
2026-05-06 01:01 -33.65730 -60.46056 27189 ft 451 kts 128°
2026-05-06 01:01 -33.67465 -60.42935 26724 ft 449 kts 128°
2026-05-06 01:02 -33.69192 -60.39823 26326 ft 445 kts 128°
2026-05-06 01:02 -33.70872 -60.36789 25916 ft 442 kts 128°
2026-05-06 01:02 -33.72495 -60.33853 25522 ft 438 kts 128°
2026-05-06 01:02 -33.74168 -60.30826 25130 ft 435 kts 128°
2026-05-06 01:03 -33.75838 -60.27800 24706 ft 432 kts 127°
2026-05-06 01:03 -33.77490 -60.24806 24306 ft 430 kts 127°
2026-05-06 01:03 -33.79116 -60.21855 23904 ft 427 kts 127°
2026-05-06 01:03 -33.80752 -60.18884 23485 ft 425 kts 127°
2026-05-06 01:04 -33.82357 -60.15970 23020 ft 422 kts 127°
2026-05-06 01:04 -33.83974 -60.13030 22602 ft 418 kts 127°
2026-05-06 01:04 -33.85579 -60.10135 22206 ft 414 kts 127°
2026-05-06 01:04 -33.87181 -60.07277 21803 ft 410 kts 127°
2026-05-06 01:05 -33.88767 -60.04454 21409 ft 407 kts 127°
2026-05-06 01:05 -33.90342 -60.01648 21022 ft 403 kts 127°
2026-05-06 01:05 -33.91903 -59.98862 20631 ft 400 kts 127°
2026-05-06 01:05 -33.93451 -59.96093 20244 ft 396 kts 127°
2026-05-06 01:06 -33.94982 -59.93352 19859 ft 393 kts 127°
2026-05-06 01:06 -33.96499 -59.90631 19487 ft 391 kts 127°
2026-05-06 01:06 -33.97829 -59.88242 19146 ft 388 kts 127°
2026-05-06 01:06 -33.98966 -59.86199 18858 ft 386 kts 127°
2026-05-06 01:07 -34.00377 -59.83661 18498 ft 384 kts 126°
2026-05-06 01:07 -34.01695 -59.81286 18139 ft 383 kts 126°
2026-05-06 01:07 -34.03151 -59.78658 17727 ft 380 kts 126°
2026-05-06 01:07 -34.04615 -59.76016 17334 ft 377 kts 126°
2026-05-06 01:08 -34.06034 -59.73455 16964 ft 374 kts 126°
2026-05-06 01:08 -34.07423 -59.70949 16594 ft 371 kts 126°
2026-05-06 01:08 -34.08830 -59.68409 16228 ft 368 kts 126°
2026-05-06 01:08 -34.10214 -59.65910 15873 ft 365 kts 126°
2026-05-06 01:09 -34.11605 -59.63395 15513 ft 362 kts 125°
2026-05-06 01:09 -34.12967 -59.60931 15160 ft 360 kts 125°
2026-05-06 01:09 -34.14225 -59.58653 14830 ft 358 kts 125°
2026-05-06 01:09 -34.15509 -59.56327 14505 ft 356 kts 125°
2026-05-06 01:10 -34.16799 -59.53988 14169 ft 354 kts 125°
2026-05-06 01:10 -34.18135 -59.51565 13804 ft 353 kts 125°
2026-05-06 01:10 -34.19428 -59.49219 13429 ft 351 kts 125°
2026-05-06 01:10 -34.20762 -59.46797 13059 ft 348 kts 124°
2026-05-06 01:11 -34.22028 -59.44381 12687 ft 346 kts 117°
2026-05-06 01:11 -34.22709 -59.41669 12381 ft 342 kts 101°
2026-05-06 01:11 -34.23124 -59.38870 12027 ft 340 kts 100°
2026-05-06 01:11 -34.23506 -59.36199 11695 ft 337 kts 100°
2026-05-06 01:12 -34.23897 -59.33477 11351 ft 335 kts 100°
2026-05-06 01:12 -34.24301 -59.30710 11008 ft 332 kts 100°
2026-05-06 01:12 -34.24695 -59.28043 10673 ft 329 kts 101°
2026-05-06 01:12 -34.25084 -59.25474 10373 ft 327 kts 101°
2026-05-06 01:13 -34.25444 -59.23104 10249 ft 318 kts 102°
2026-05-06 01:13 -34.25813 -59.20685 10118 ft 310 kts 101°
2026-05-06 01:13 -34.26191 -59.18153 9989 ft 301 kts 101°
2026-05-06 01:13 -34.26550 -59.15747 9931 ft 290 kts 101°
2026-05-06 01:14 -34.27173 -59.11590 9304 ft 291 kts 101°
2026-05-06 01:14 -34.27533 -59.09190 8968 ft 291 kts 101°
2026-05-06 01:14 -34.27894 -59.06790 8667 ft 290 kts 101°
2026-05-06 01:15 -34.28254 -59.04458 8377 ft 288 kts 101°
2026-05-06 01:15 -34.28592 -59.02148 8103 ft 287 kts 100°
2026-05-06 01:15 -34.28933 -58.99807 7815 ft 286 kts 100°
2026-05-06 01:15 -34.29291 -58.97446 7527 ft 285 kts 101°
2026-05-06 01:16 -34.29643 -58.95096 7246 ft 284 kts 100°
2026-05-06 01:16 -34.29993 -58.92753 6962 ft 283 kts 100°
2026-05-06 01:16 -34.30345 -58.90410 6681 ft 283 kts 100°
2026-05-06 01:16 -34.30689 -58.88103 6399 ft 282 kts 100°
2026-05-06 01:17 -34.31036 -58.85770 6090 ft 282 kts 100°
2026-05-06 01:17 -34.31383 -58.83433 5814 ft 281 kts 100°
2026-05-06 01:17 -34.31727 -58.81113 5549 ft 279 kts 100°
2026-05-06 01:17 -34.32069 -58.78806 5277 ft 278 kts 100°
2026-05-06 01:18 -34.32510 -58.76538 4990 ft 277 kts 115°
2026-05-06 01:18 -34.33619 -58.74689 4807 ft 269 kts 135°
2026-05-06 01:18 -34.34918 -58.73084 4604 ft 266 kts 136°
2026-05-06 01:18 -34.36222 -58.71494 4411 ft 266 kts 136°
2026-05-06 01:19 -34.37529 -58.69899 4219 ft 266 kts 135°
2026-05-06 01:19 -34.38812 -58.68285 4028 ft 266 kts 133°
2026-05-06 01:19 -34.40073 -58.66704 3834 ft 263 kts 135°
2026-05-06 01:19 -34.41369 -58.65124 3641 ft 259 kts 135°
2026-05-06 01:20 -34.42604 -58.63608 3466 ft 254 kts 134°
2026-05-06 01:20 -34.43835 -58.62086 3277 ft 251 kts 133°
2026-05-06 01:20 -34.45047 -58.60579 3117 ft 244 kts 133°
2026-05-06 01:20 -34.46154 -58.59078 2884 ft 235 kts 125°
2026-05-06 01:21 -34.47066 -58.57476 2651 ft 228 kts 124°
2026-05-06 01:21 -34.47948 -58.55980 2413 ft 220 kts 121°
2026-05-06 01:21 -34.48768 -58.54464 2157 ft 210 kts 121°
2026-05-06 01:21 -34.49557 -58.53055 2004 ft 193 kts 123°
2026-05-06 01:22 -34.50290 -58.51751 1775 ft 180 kts 121°
2026-05-06 01:22 -34.50960 -58.50538 1554 ft 168 kts 121°
2026-05-06 01:22 -34.51583 -58.49429 1398 ft 152 kts 122°
2026-05-06 01:22 -34.52139 -58.48413 1217 ft 141 kts 121°
2026-05-06 01:23 -34.52666 -58.47430 992 ft 138 kts 121°
2026-05-06 01:23 -34.53202 -58.46458 816 ft 139 kts 122°
2026-05-06 01:23 -34.53745 -58.45481 625 ft 139 kts 123°
2026-05-06 01:23 -34.54290 -58.44497 427 ft 143 kts 125°
2026-05-06 01:24 -34.54844 -58.43501 257 ft 143 kts 126°
2026-05-06 01:24 -34.55385 -58.42546 46 ft 139 kts 125°
2026-05-06 01:24 -34.55878 -58.41663 23 ft 104 kts 124°
2026-05-06 01:24 -34.56159 -58.41160 26 ft 43 kts 123°
2026-05-06 01:25 -34.56230 -58.40930 24 ft 9 kts 99°
2026-05-06 01:25 -34.56235 -58.40859 24 ft 8 kts 94°
2026-05-06 01:25 -34.56225 -58.40820 25 ft 1 kts 357°
2026-05-06 01:25 -34.56215 -58.40824 28 ft 3 kts 338°
2026-05-06 01:26 -34.56188 -58.40850 28 ft 7 kts 309°
2026-05-06 01:26 -34.56168 -58.40893 24 ft 1 kts 298°
2026-05-06 01:26 -34.56163 -58.40901 27 ft 1 kts 305°
2026-05-06 01:26 -34.56146 -58.40905 27 ft 4 kts
2026-05-06 01:27 -34.56116 -58.40884 24 ft 5 kts 37°
2026-05-06 01:27 -34.56091 -58.40861 24 ft 4 kts 38°
2026-05-06 01:27 -34.56079 -58.40849 24 ft 0 kts 38°